Location: Unspecified
(41.5516°N, 88.1098°W)
Time: 19:57:59
(UTC-05:00)

Resurs 1-4 Rocket - Visible Passes

Search period start: 21 April 2018 00:00
Search period end: 01 May 2018 00:00
Orbit: 799 x 815 km, 98.5° (Epoch: 19 April)

Date Brightness Start Highest point End Pass type
(mag) Time Alt. Az. Time Alt. Az. Time Alt. Az.
21 Apr 2.5 02:43:38 10° NNE 02:48:20 59° ENE 02:48:20 59° ENE visible
21 Apr 3.7 04:24:44 10° NNW 04:28:10 18° WNW 04:29:25 17° W visible
22 Apr 3.3 02:19:19 10° NNE 02:23:33 35° E 02:23:33 35° E visible
22 Apr 3.1 03:59:25 10° N 04:03:51 28° WNW 04:04:38 27° W visible
23 Apr 4.0 01:55:21 10° NE 01:58:45 22° E 01:58:45 22° E visible
23 Apr 2.4 03:34:26 10° N 03:39:26 46° WNW 03:39:50 45° W visible
24 Apr 4.5 01:32:13 10° ENE 01:33:57 13° E 01:33:57 13° E visible
24 Apr 1.9 03:09:41 10° N 03:14:57 77° WNW 03:15:03 76° W visible
24 Apr 4.2 04:52:52 10° NW 04:53:52 11° WNW 04:54:52 10° WNW visible
25 Apr 2.3 02:45:07 10° NNE 02:50:15 65° E 02:50:15 65° E visible
25 Apr 3.8 04:26:18 10° NNW 04:29:39 17° WNW 04:31:20 15° W visible
26 Apr 3.1 02:20:48 10° NNE 02:25:27 38° E 02:25:27 38° E visible
26 Apr 3.2 04:00:57 10° N 04:05:20 27° WNW 04:06:32 25° W visible
27 Apr 3.8 01:56:47 10° NE 02:00:39 23° E 02:00:39 23° E visible
27 Apr 2.5 03:35:57 10° N 03:40:56 44° WNW 03:41:45 41° W visible
28 Apr 4.4 01:33:32 10° ENE 01:35:51 13° E 01:35:51 13° E visible
28 Apr 1.9 03:11:11 10° N 03:16:26 74° WNW 03:16:56 68° WSW visible
28 Apr 4.2 04:54:50 10° NW 04:55:20 10° WNW 04:55:49 10° WNW visible
29 Apr 2.2 02:46:36 10° NNE 02:51:52 67° ESE 02:52:09 66° ESE visible
29 Apr 3.8 04:27:53 10° NNW 04:31:08 17° WNW 04:33:14 14° W visible
30 Apr 3.0 02:22:16 10° NNE 02:27:12 40° E 02:27:20 39° ESE visible
30 Apr 3.3 04:02:29 10° N 04:06:49 27° WNW 04:08:26 23° W visible
